Le nostre stazioni meteo in Italia

Pubblicità
Il mio iltempo24.it
Rolo, Italia (16143): Temperatura & dewpoint: 29.05.2020 21:00:00 - 04.06.2020 21:00:00 (CEST)Rolo, Italia (16143): reduced air pressure: 29.05.2020 21:00:00 - 04.06.2020 21:00:00 (CEST)Rolo, Italia (16143): precipitazioni: 29.05.2020 21:00:00 - 04.06.2020 21:00:00 (CEST)
Data & Tempo tt [°C] td [°C] ppp [hPa] rr [mm]
04.06.2020 21:00:00 - - - -
04.06.2020 20:00:00 17,1 15,3 998,1 1,8
04.06.2020 19:00:00 17,1 15,3 998,6 2,2
04.06.2020 18:00:00 17,4 15,6 999,6 1,6
04.06.2020 17:00:00 16,9 14,9 1000,4 2,0
04.06.2020 16:00:00 16,8 14,4 1001,2 1,4
04.06.2020 15:00:00 17,1 14,7 1001,2 0,0
04.06.2020 14:00:00 17,4 15,4 1001,6 1,6
04.06.2020 13:00:00 16,8 14,6 1002,6 2,0
04.06.2020 12:00:00 16,6 14,2 1002,8 0,8
04.06.2020 11:00:00 16,2 13,3 1003,1 -
04.06.2020 10:00:00 16,1 13,8 1003,2 0,0
04.06.2020 09:00:00 15,9 13,2 1003,1 0,0
04.06.2020 08:00:00 15,6 13,1 1003,2 0,0
04.06.2020 07:00:00 15,4 12,3 1003,2 0,0
04.06.2020 06:00:00 13,8 11,1 1003,1 0,0
04.06.2020 05:00:00 - - - -
04.06.2020 04:00:00 13,5 10,1 1003,5 0,0
04.06.2020 03:00:00 - - - -
04.06.2020 02:00:00 15,3 10,7 1004,7 0,0
04.06.2020 01:00:00 16,9 10,5 1005,2 0,0
04.06.2020 00:00:00 19,0 10,5 1005,4 0,0
03.06.2020 23:00:00 20,8 10,3 1005,7 0,0
03.06.2020 22:00:00 21,4 9,3 1005,7 0,0
03.06.2020 21:00:00 22,5 9,6 1005,3 0,0
03.06.2020 20:00:00 23,8 11,2 1005,2 0,0
03.06.2020 19:00:00 26,3 11,6 1004,2 0,0
03.06.2020 18:00:00 26,8 12,8 1004,5 0,0
03.06.2020 17:00:00 28,2 12,1 1005,0 0,0
03.06.2020 16:00:00 28,4 13,1 1005,6 0,0
03.06.2020 15:00:00 28,4 13,1 1006,5 0,0
03.06.2020 14:00:00 27,6 12,4 1007,3 0,0
03.06.2020 13:00:00 26,8 11,7 1008,1 0,0
03.06.2020 12:00:00 25,2 11,7 1008,7 0,0
03.06.2020 11:00:00 24,0 12,6 1009,1 0,0
03.06.2020 10:00:00 22,1 13,7 1009,5 0,0
03.06.2020 09:00:00 20,4 13,4 1009,8 0,0
03.06.2020 08:00:00 18,2 12,0 1010,1 0,0
03.06.2020 07:00:00 15,4 11,2 1010,0 0,0
03.06.2020 06:00:00 13,3 10,1 1009,9 0,0
03.06.2020 05:00:00 - - - -
03.06.2020 04:00:00 - - - -
03.06.2020 03:00:00 - - - -
03.06.2020 02:00:00 14,1 10,7 1010,9 0,0
03.06.2020 01:00:00 15,6 11,2 1011,2 0,0
03.06.2020 00:00:00 17,7 11,3 1011,3 0,0
02.06.2020 23:00:00 18,3 11,4 1011,4 0,0
02.06.2020 22:00:00 19,9 11,4 1011,5 0,0
02.06.2020 21:00:00 21,1 12,0 1010,5 0,0
02.06.2020 20:00:00 23,5 12,2 1010,2 0,0
02.06.2020 19:00:00 25,4 13,6 1009,8 0,0
02.06.2020 18:00:00 27,1 12,0 1009,6 0,0
02.06.2020 17:00:00 28,9 11,0 1010,3 0,0
02.06.2020 16:00:00 29,1 11,2 1010,9 0,0
02.06.2020 15:00:00 28,7 10,8 1011,6 0,0
02.06.2020 14:00:00 27,8 10,5 1012,4 0,0
02.06.2020 13:00:00 27,4 11,0 1013,0 0,0
02.06.2020 12:00:00 26,0 12,8 1013,6 0,0
02.06.2020 11:00:00 24,0 13,5 1014,2 0,0
02.06.2020 10:00:00 21,5 12,6 1014,6 0,0
02.06.2020 09:00:00 19,8 12,1 1015,1 0,0
02.06.2020 08:00:00 19,4 10,9 1015,0 0,0
02.06.2020 07:00:00 14,2 11,4 1015,1 0,0
02.06.2020 06:00:00 12,6 9,6 1015,3 0,0
02.06.2020 05:00:00 - - - -
02.06.2020 04:00:00 - - - -
02.06.2020 03:00:00 14,3 9,9 1016,3 0,0
02.06.2020 02:00:00 14,8 9,2 1016,4 0,0
02.06.2020 01:00:00 15,7 8,9 1016,5 0,0
02.06.2020 00:00:00 17,5 8,1 1016,7 0,0
01.06.2020 23:00:00 17,1 9,0 1016,5 0,0
01.06.2020 22:00:00 18,6 9,4 1016,4 0,0
01.06.2020 21:00:00 - - - -
01.06.2020 20:00:00 23,7 10,0 1015,7 0,0
01.06.2020 19:00:00 25,3 8,7 1015,7 0,0
01.06.2020 18:00:00 25,3 9,2 1016,0 0,0
01.06.2020 17:00:00 26,5 9,4 1016,3 0,0
01.06.2020 16:00:00 26,2 9,1 1016,5 0,0
01.06.2020 15:00:00 26,5 9,8 1016,8 0,0
01.06.2020 14:00:00 26,1 9,0 1017,3 0,0
01.06.2020 13:00:00 25,5 9,3 1017,5 0,0
01.06.2020 12:00:00 24,6 10,5 1017,8 0,0
01.06.2020 11:00:00 23,3 10,0 1018,0 0,0
01.06.2020 10:00:00 22,4 10,5 1018,2 0,0
01.06.2020 09:00:00 20,7 11,6 1018,2 0,0
01.06.2020 08:00:00 18,0 11,1 1018,1 0,0
01.06.2020 07:00:00 15,4 11,0 1018,0 0,0
01.06.2020 06:00:00 12,9 10,4 1017,9 0,0
01.06.2020 05:00:00 12,7 10,2 1017,4 0,0
01.06.2020 04:00:00 - - - -
01.06.2020 03:00:00 12,1 9,1 1017,2 0,0
01.06.2020 02:00:00 13,1 9,2 1017,0 0,0
01.06.2020 01:00:00 - - - -
01.06.2020 00:00:00 - - - -
31.05.2020 23:00:00 - - - -
31.05.2020 22:00:00 16,4 10,7 1015,2 0,0
31.05.2020 21:00:00 - - - -
31.05.2020 20:00:00 22,8 10,2 1014,1 0,0
31.05.2020 19:00:00 23,4 9,0 1013,9 0,0
31.05.2020 18:00:00 23,9 8,7 1014,1 0,0
31.05.2020 17:00:00 23,1 9,5 1014,5 0,0
31.05.2020 16:00:00 23,2 9,2 1014,8 0,0
31.05.2020 15:00:00 23,6 8,8 1015,1 0,0
31.05.2020 14:00:00 22,0 8,8 1015,7 0,2
31.05.2020 13:00:00 22,3 9,1 1016,1 0,0
31.05.2020 12:00:00 21,4 10,2 1016,6 0,0
31.05.2020 11:00:00 19,5 11,8 1017,0 0,0
31.05.2020 10:00:00 17,8 11,1 1017,2 0,0
31.05.2020 09:00:00 16,7 10,5 1017,3 0,0
31.05.2020 08:00:00 15,3 10,7 1017,1 0,0
31.05.2020 07:00:00 14,5 10,3 1017,0 0,0
31.05.2020 06:00:00 14,5 9,9 1016,7 0,0
31.05.2020 05:00:00 - - - -
31.05.2020 04:00:00 14,7 10,1 1016,6 0,0
31.05.2020 03:00:00 15,2 10,4 1017,0 0,0
31.05.2020 02:00:00 - - - -
31.05.2020 01:00:00 15,4 10,4 1016,7 0,0
31.05.2020 00:00:00 - - - -
30.05.2020 23:00:00 16,9 10,3 1016,3 0,0
30.05.2020 22:00:00 17,1 10,7 1015,9 0,0
30.05.2020 21:00:00 17,3 10,2 1015,2 0,0
30.05.2020 20:00:00 20,0 9,3 1014,8 0,0
30.05.2020 19:00:00 21,2 9,1 1014,7 0,0
30.05.2020 18:00:00 21,6 8,5 1014,8 0,2
30.05.2020 17:00:00 21,5 8,0 1015,1 0,0
30.05.2020 16:00:00 21,7 9,9 1015,4 0,0
30.05.2020 15:00:00 23,5 9,1 1015,6 0,0
30.05.2020 14:00:00 23,1 8,8 1016,3 0,0
30.05.2020 13:00:00 21,5 8,4 1016,8 0,0
30.05.2020 12:00:00 20,7 9,3 1017,1 0,0
30.05.2020 11:00:00 20,1 11,0 1017,6 0,0
30.05.2020 10:00:00 19,6 10,0 1017,8 0,0
30.05.2020 09:00:00 17,4 9,8 1018,2 0,0
30.05.2020 08:00:00 14,7 8,9 1018,3 0,2
30.05.2020 07:00:00 11,8 7,5 1018,4 0,0
30.05.2020 06:00:00 10,4 7,5 1018,4 0,0
30.05.2020 05:00:00 - - - -
30.05.2020 04:00:00 - - - -
30.05.2020 03:00:00 - - - -
30.05.2020 02:00:00 - - - -
30.05.2020 01:00:00 - - - -
30.05.2020 00:00:00 - - - -
29.05.2020 23:00:00 11,9 8,7 1019,8 0,0
29.05.2020 22:00:00 - - - -
29.05.2020 21:00:00 - - - -

tt = Temperatura
td = dewpoint
ppp = reduced air pressure
rr = precipitazioni

Stazioni seguenti

WeatherPro
AMSI
MeteoEarth